GSAT0211 (GALILEO 14)

Last updated on Mon Sep 21 2026 00:02:49 GMT+0000 (Coordinated Universal Time)

1 41549U 16030A 26262.23641377 .00000017 00000+0 00000+0 0 9990 2 41549 55.0739 219.1095 0003823 336.6356 23.3205 1.70473155 64276
UTC large
Height (km)
Speed (km/s)
/
Latitude / Longitude
Inclination (degrees)
Orbital Period (minutes)
Azimuth
Elevation
Range (km)
Doppler Factor

Next 0 passes for location: London (51.5072 / 0.1276)

No passes found over London.